Regional Weather Roundup
Issued by NWS

Home | Current Version | Previous Version | Graphics & Text | Print | Product List | Glossary On
Versions: 1 2 3 4 5 6 7 8 9 10 11 12 13 14 15 16 17 18 19 20 21 22 23 24 25 26 27 28 29 30 31 32 33 34 35 36 37 38 39 40 41 42 43 44 45 46 47 48 49 50
000
ASUS43 KBIS 282110
RWRND

NORTH DAKOTA REGIONAL WEATHER ROUNDUP
NATIONAL WEATHER SERVICE BISMARCK ND
400 PM CDT WED SEP 28 2016

NOTE: "FAIR" INDICATES FEW OR NO CLOUDS BELOW 12,000 FEET WITH NO
SIGNIFICANT WEATHER AND/OR OBSTRUCTIONS TO VISIBILITY.


NDZ001>003-009>011-017-282200-
NORTHWEST NORTH DAKOTA

CITY           SKY/WX    TMP DP  RH WIND       PRES   REMARKS
WILLISTON      SUNNY     74  52  46 SE9       30.24F
MINOT          SUNNY     70  37  29 E8        30.30R
MINOT AFB      SUNNY     69  38  32 E9        30.28S
$$

NDZ018>021-031>035-040>046-282200-
SOUTHWEST NORTH DAKOTA

CITY           SKY/WX    TMP DP  RH WIND       PRES   REMARKS
BISMARCK       SUNNY     69  38  32 E10       30.29S
DICKINSON      SUNNY     74  46  36 E7        30.24S
GARRISON         N/A     71  36  27 E8        30.29R
HETTINGER ARPT SUNNY     76  46  34 SE13      30.27S
$$

NDZ004>008-012>016-024-026-027-054-282200-
NORTHEAST NORTH DAKOTA

CITY           SKY/WX    TMP DP  RH WIND       PRES   REMARKS
GRAND FORKS    MOSUNNY   61  46  57 N5        30.33R
GRND FRKS AFB  SUNNY     59  47  62 NE5       30.34R
DEVILS LAKE    SUNNY     57  46  66 VRB3      30.34R HAZE
$$

NDZ022-023-025-028>030-036>039-047>053-282200-
SOUTHEAST NORTH DAKOTA

CITY           SKY/WX    TMP DP  RH WIND       PRES   REMARKS
FARGO          MOSUNNY   64  46  52 N7        30.30S
JAMESTOWN      SUNNY     63  45  51 CALM      30.31R
$$





USA.gov is the U.S. government's official web portal to all federal, state and local government web resources and services.